Regional Weather Roundup
Issued by NWS Cleveland, OH

Home | Current Version | Previous Version | Graphics & Text | Print | Product List | Glossary On
Versions: 1 2 3 4 5 6 7 8 9 10 11 12 13 14 15 16 17 18 19 20 21 22 23 24 25 26 27 28 29 30 31 32 33 34 35 36 37 38 39 40 41 42 43 44 45 46 47 48 49 50
000
ASUS41 KCLE 191710
RWRCLE
OHIO REGIONAL WEATHER ROUNDUP
NATIONAL WEATHER SERVICE WILMINGTON, OH
100 PM EDT SUN APR 19 2015

NOTE: "FAIR" INDICATES FEW OR NO CLOUDS BELOW 12,000 FEET WITH NO
SIGNIFICANT WEATHER AND/OR OBSTRUCTIONS TO VISIBILITY.

OHZ001>008-015>018-024>027-034-035-043-044-191800-
   NORTHWEST OHIO

CITY           SKY/WX    TMP DP  RH WIND       PRES   REMARKS
DEFIANCE       PTSUNNY   61  39  44 E14       29.81F
FINDLAY        PTSUNNY   70  45  40 NE13      29.78F
TOLEDO EXPRESS PTSUNNY   52  36  54 E20G25    29.85F
TOLEDO EXEC    MOSUNNY   51  37  58 E16G25    29.87F
LIMA           CLOUDY    73  52  47 SE13      29.77F
$$

OHZ009>014-019>023-028>033-038-089-191800-
   NORTHEAST OHIO

CITY           SKY/WX    TMP DP  RH WIND       PRES   REMARKS
CLE-HOPKINS    PTSUNNY   70  43  37 E12G21    29.89F
CLE-LAKEFRONT  PTSUNNY   50  42  74 NE17G23   29.88F
CUY CO. ARPT   PTSUNNY   70  50  49 E12G21    29.90F
LORAIN-ELYRIA  PTSUNNY   69  45  41 SE17G23   29.85F
ASHTABULA      MOSUNNY   69  34  27 SE14G22   29.95F
AKRON-CANTON   CLOUDY    71  41  33 SE15G23   29.89F
WOOSTER        PTSUNNY   71  46  40 SE16      29.87F
MANSFIELD      PTSUNNY   74  46  36 SE23G29   29.83F
YOUNGSTOWN     CLOUDY    70  36  28 E14G25    29.93F
$$

OHZ042-051>053-060>062-070>072-077>081-191800-
  SOUTHWEST OHIO

CITY           SKY/WX    TMP DP  RH WIND       PRES   REMARKS
CINC-COVINGTON LGT RAIN  62  59  90 SE17G24   29.70F
CINC-LUNKEN    LGT RAIN  64  61  90 E9G16     29.72F
HAMILTON       LGT RAIN  64  60  87 E9        29.72F
DAYTON         LGT RAIN  65  57  75 SE14      29.75F
WRIGHT-PAT AFB LGT RAIN  66  59  77 SE14      29.74F
DAYTON GENERAL LGT RAIN  64  59  83 SE14      29.73F
WILMINGTON     LGT RAIN  63  59  87 SE17G28   29.75F FOG
$$

OHZ036-037-039>041-045>050-054>059-063>069-073>076-082>088-191800-
  CENTRAL AND SOUTHEAST OHIO

CITY           SKY/WX    TMP DP  RH WIND       PRES   REMARKS
COLUMBUS       LGT RAIN  71  50  47 S24G37    29.80F
OSU AIRPORT    CLOUDY    72  52  49 S21G29    29.78F
BOLTON FIELD   CLOUDY    70  57  64 SE15G24   29.80F
RICKENBACK AFB DRIZZLE   69  54  58 SE16      29.78F
NEWARK         CLOUDY    74  47  38 S14G25    29.81F
MARION         CLOUDY    74  50  42 S20G35    29.80F
LANCASTER      CLOUDY    70  50  49 SE23      29.81F
ZANESVILLE     CLOUDY    72  45  37 SE17G26   29.84F
NEW PHILLY     PTSUNNY   75  43  31 SE20G26   29.88F
$$


USA.gov is the U.S. government's official web portal to all federal, state and local government web resources and services.